Location: Newark
(48.4472°N, 1.4892°E)
Time: 03:18:00
(UTC+00:00)

Vanguard 2 Rocket - Pass Details

Date: 17 November 2019
Orbit: 554 x 3326 km, 32.9° (Epoch: 05 December)

Event Time Altitude Azimuth Distance (km) Brightness Sun altitude
Exits shadow 02:35:04 13° 130° (SE) 2,824 9.6 -43.9°
Drops below altitude 10° 02:36:11 10° 123° (ESE) 3,139 9.9 -43.7°
Sets 02:40:56 0° 107° (ESE) 4,670 11.1 -43.0°
